FW1419 Weather Reports


Display with metric or nautical units.
time (UTC)temp
F
wind
direction
speed
MPH
gust
MPH
rain 1hr
in
rain 24hr
in
rain mn
in
humidity
%
barometer
mb
20260505234828 62 203 5.0 11.0 0.00 0.21 0.21 53 1013.7
20260505234319 63 198 5.0 11.0 0.00 0.21 0.21 52 1013.7
20260505233831 63 195 3.0 12.0 0.00 0.21 0.21 53 1013.6
20260505233341 63 241 7.0 12.0 0.00 0.21 0.21 52 1013.6
20260505232813 63 232 4.0 10.0 0.00 0.21 0.21 52 1013.5
20260505232324 63 214 3.0 9.0 0.00 0.21 0.21 54 1013.5
20260505231816 63 217 4.0 9.0 0.00 0.21 0.21 52 1013.7
20260505231347 63 223 3.0 10.0 0.00 0.21 0.21 55 1013.7
20260505230818 63 214 5.0 10.0 0.00 0.21 0.21 55 1013.7
20260505230312 63 171 4.0 9.0 0.00 0.21 0.21 55 1013.7
20260505225844 62 272 2.0 8.0 0.00 0.21 0.21 57 1013.8
20260505225313 62 235 2.0 9.0 0.00 0.21 0.21 54 1013.8
20260505224825 62 229 3.0 9.0 0.00 0.21 0.21 54 1013.8
20260505224336 62 238 0.0 7.0 0.00 0.21 0.21 55 1013.8
20260505223846 62 202 3.0 8.0 0.00 0.21 0.21 54 1014.0
20260505223317 62 211 4.0 8.0 0.00 0.21 0.21 54 1013.9
20260505222829 63 275 2.0 6.0 0.00 0.21 0.21 57 1014.0
20260505222320 62 186 1.0 3.0 0.00 0.21 0.21 57 1014.0
20260505221834 61 231 0.0 6.0 0.00 0.21 0.21 58 1014.1
20260505221324 61 241 3.0 6.0 0.00 0.21 0.21 57 1014.2
20260505220835 61 256 0.0 2.0 0.00 0.21 0.21 59 1014.2
20260505220330 61 250 1.0 6.0 0.00 0.21 0.21 60 1014.3
20260505215820 61 260 0.0 6.0 0.00 0.21 0.21 59 1014.4
20260505215311 61 246 1.0 4.0 0.00 0.21 0.21 61 1014.4
20260505214843 60 278 3.0 4.0 0.00 0.21 0.21 59 1014.4
20260505214312 60 250 0.0 3.0 0.00 0.21 0.21 60 1014.4
20260505213823 60 272 1.0 3.0 0.00 0.21 0.21 60 1014.5
20260505213315 60 217 1.0 2.0 0.00 0.21 0.21 60 1014.5
20260505212826 60 274 0.0 3.0 0.00 0.21 0.21 60 1014.4
20260505212317 60 299 1.0 3.0 0.00 0.21 0.21 60 1014.6
20260505211813 60 300 1.0 2.0 0.00 0.21 0.21 60 1014.6
20260505211325 60 68 0.0 2.0 0.00 0.21 0.21 60 1014.6
20260505210815 60 310 0.0 3.0 0.00 0.21 0.21 61 1014.6
20260505210348 60 310 1.0 4.0 0.00 0.21 0.21 61 1014.7
20260505205816 60 26 0.0 4.0 0.00 0.21 0.21 62 1014.6
20260505205328 60 32 1.0 5.0 0.00 0.21 0.21 61 1014.6
20260505204819 60 48 1.0 5.0 0.00 0.21 0.21 63 1014.6
20260505204330 60 83 1.0 5.0 0.00 0.21 0.21 64 1014.6
20260505203820 60 51 1.0 5.0 0.00 0.21 0.21 64 1014.6
20260505203312 60 308 1.0 5.0 0.00 0.21 0.21 65 1014.7
20260505202826 60 37 2.0 5.0 0.00 0.21 0.21 65 1014.6
20260505202317 59 39 1.0 3.0 0.00 0.21 0.21 67 1014.7
20260505201829 59 53 0.0 3.0 0.00 0.21 0.21 68 1014.8
20260505201320 58 40 0.0 8.0 0.00 0.21 0.21 68 1014.8
20260505200851 58 353 4.0 8.0 0.00 0.21 0.21 66 1014.9
20260505200322 58 292 3.0 6.0 0.00 0.21 0.21 68 1014.9
20260505195813 59 278 3.0 5.0 0.00 0.21 0.21 68 1014.9
20260505195325 59 318 2.0 5.0 0.00 0.21 0.21 68 1014.9
20260505194815 59 305 1.0 8.0 0.00 0.21 0.21 70 1014.8
20260505194312 59 11 3.0 8.0 0.00 0.21 0.21 69 1015.0
20260505193823 59 256 2.0 5.0 0.00 0.21 0.21 69 1015.1
20260505193314 59 229 2.0 5.0 0.00 0.21 0.21 68 1015.0
20260505192826 59 20 0.0 2.0 0.00 0.21 0.21 68 1015.1
20260505192317 59 103 0.0 3.0 0.00 0.21 0.21 68 1015.1
20260505191829 59 139 0.0 4.0 0.00 0.21 0.21 70 1015.2
20260505191320 59 32 2.0 6.0 0.00 0.21 0.21 71 1015.1
20260505190812 58 48 3.0 6.0 0.00 0.21 0.21 71 1015.1
20260505190327 58 48 2.0 4.0 0.00 0.21 0.21 72 1015.2
20260505185837 58 88 0.0 3.0 0.00 0.21 0.21 72 1015.1
20260505185327 58 113 0.0 7.0 0.00 0.21 0.21 73 1015.3
20260505184817 57 143 1.0 7.0 0.00 0.21 0.21 76 1015.1
20260505184329 57 68 1.0 7.0 0.00 0.21 0.21 76 1015.2
20260505183820 57 84 2.0 7.0 0.00 0.21 0.21 80 1015.2
20260505183311 56 78 2.0 5.0 0.00 0.21 0.21 80 1015.3
20260505182822 56 70 1.0 3.0 0.00 0.21 0.21 83 1015.4
20260505182312 56 108 1.0 4.0 0.00 0.21 0.21 84 1015.4
20260505181824 55 138 1.0 4.0 0.00 0.21 0.21 84 1015.3
20260505181335 55 77 2.0 4.0 0.00 0.21 0.21 85 1015.3
20260505180825 55 108 1.0 4.0 0.00 0.21 0.21 86 1015.4
20260505180320 55 93 1.0 4.0 0.00 0.21 0.21 87 1015.4
20260505175811 55 115 1.0 4.0 0.00 0.21 0.21 87 1015.3
20260505175341 55 77 1.0 4.0 0.00 0.21 0.21 89 1015.4
20260505174831 54 123 1.0 4.0 0.00 0.21 0.21 90 1015.2
20260505174322 54 75 1.0 4.0 0.00 0.21 0.21 89 1015.2
20260505173814 54 120 0.0 4.0 0.00 0.21 0.21 90 1015.2
20260505173326 53 85 1.0 4.0 0.00 0.21 0.21 90 1015.1
20260505172816 53 115 0.0 3.0 0.00 0.21 0.21 91 1015.0
20260505172347 53 94 0.0 3.0 0.00 0.21 0.21 92 1015.0
20260505171838 53 118 0.0 2.0 0.00 0.21 0.21 92 1014.9
20260505171348 53 118 0.0 0.0 0.00 0.21 0.21 92 1014.9
20260505170818 53 132 0.0 0.0 0.01 0.21 0.21 92 1014.8
20260505170313 53 132 0.0 0.0 0.01 0.21 0.21 92 1014.9
20260505165825 53 132 0.0 0.0 0.01 0.21 0.21 92 1014.9
20260505165315 53 132 0.0 1.0 0.01 0.21 0.21 92 1014.8
20260505164826 53 132 0.0 1.0 0.01 0.21 0.21 92 1014.8
20260505164318 53 226 0.0 0.0 0.01 0.21 0.21 92 1014.7
20260505163850 53 158 0.0 0.0 0.01 0.21 0.21 93 1014.6
20260505163320 53 212 0.0 0.0 0.01 0.21 0.21 93 1014.6
20260505162811 52 212 0.0 0.0 0.02 0.21 0.21 93 1014.6
20260505162323 52 212 0.0 0.0 0.03 0.21 0.21 93 1014.5
20260505161839 52 212 0.0 0.0 0.03 0.21 0.21 93 1014.4
20260505161349 52 212 0.0 0.0 0.03 0.21 0.21 93 1014.4
20260505160819 52 212 0.0 0.0 0.02 0.20 0.20 93 1014.3
20260505160331 52 230 0.0 0.0 0.02 0.20 0.20 93 1014.3
20260505153312 51 302 2.0 7.0 0.02 0.20 0.20 92 1014.2
20260505152822 52 293 4.0 7.0 0.01 0.19 0.19 92 1014.0
20260505152315 52 306 0.0 0.0 0.00 0.18 0.18 93 1013.9
20260505151846 52 107 0.0 0.0 0.00 0.18 0.18 94 1013.9
20260505151319 52 107 0.0 0.0 0.01 0.18 0.18 94 1013.9
20260505150811 52 107 0.0 0.0 0.02 0.18 0.18 94 1013.9
20260505150323 52 107 0.0 0.0 0.02 0.18 0.18 94 1013.9
20260505140322 51 107 0.0 0.0 0.01 0.16 0.16 94 1013.5
20260505124815 50 107 0.0 0.0 0.01 0.12 0.12 93 1013.0
20260505124346 50 107 0.0 0.0 0.01 0.12 0.12 93 1013.0
20260505123815 50 121 0.0 0.0 0.01 0.12 0.12 93 1013.0
20260505123328 50 121 0.0 0.0 0.01 0.12 0.12 93 1013.0
20260505122819 50 129 0.0 0.0 0.01 0.12 0.12 93 1013.1
20260505122311 50 129 0.0 0.0 0.01 0.12 0.12 93 1013.1
20260505121842 50 129 0.0 0.0 0.01 0.12 0.12 93 1013.1
20260505121311 50 129 0.0 0.0 0.01 0.12 0.12 93 1013.0
20260505120822 50 130 0.0 0.0 0.01 0.12 0.12 93 1013.1
20260505120317 50 130 0.0 0.0 0.01 0.12 0.12 93 1013.1
20260505115829 50 130 0.0 0.0 0.01 0.12 0.12 93 1013.2
20260505115320 51 130 0.0 0.0 0.00 0.11 0.11 93 1013.2
20260505114812 51 130 0.0 0.0 0.00 0.11 0.11 93 1013.2
20260505114324 51 130 0.0 0.0 0.00 0.11 0.11 93 1013.1
20260505113817 50 130 0.0 0.0 0.00 0.11 0.11 93 1013.3
20260505113328 50 130 0.0 0.0 0.00 0.11 0.11 93 1013.2
20260505112820 50 130 0.0 0.0 0.00 0.11 0.11 93 1013.2
20260505112314 50 130 0.0 0.0 0.00 0.11 0.11 93 1013.2
20260505111825 50 130 0.0 0.0 0.00 0.11 0.11 93 1013.2
20260505111317 50 130 0.0 0.0 0.00 0.11 0.11 93 1013.3
20260505110829 50 130 0.0 0.0 0.00 0.11 0.11 93 1013.2
20260505110319 50 130 0.0 0.0 0.00 0.11 0.11 93 1013.2
20260505101822 50 94 0.0 0.0 0.00 0.11 0.11 93 1013.3
20260505101314 50 94 0.0 0.0 0.00 0.11 0.11 92 1013.3
20260505100825 50 94 0.0 0.0 0.00 0.11 0.11 93 1013.4
20260505100317 50 94 0.0 0.0 0.01 0.11 0.11 92 1013.5
20260505095849 50 94 0.0 0.0 0.01 0.11 0.11 92 1013.5
20260505095318 50 94 0.0 0.0 0.02 0.11 0.11 92 1013.5
20260505094833 50 94 0.0 0.0 0.03 0.11 0.11 92 1013.5
20260505094322 50 94 0.0 0.0 0.03 0.11 0.11 92 1013.6
20260505093834 51 86 0.0 0.0 0.03 0.11 0.11 92 1013.7
20260505093325 51 86 0.0 0.0 0.03 0.11 0.11 92 1013.7
20260505092815 51 86 0.0 0.0 0.03 0.11 0.11 92 1013.7
20260505092326 51 77 0.0 0.0 0.03 0.11 0.11 92 1013.8
20260505091817 51 48 0.0 0.0 0.03 0.11 0.11 92 1013.9
20260505091329 51 32 0.0 0.0 0.03 0.11 0.11 92 1014.0
20260505090819 51 20 0.0 0.0 0.03 0.11 0.11 92 1014.1
20260505090331 51 15 0.0 0.0 0.03 0.10 0.10 92 1014.1
20260505085817 51 15 0.0 0.0 0.03 0.10 0.10 91 1014.4
20260505085312 51 8 0.0 0.0 0.02 0.09 0.09 92 1014.3
20260505084824 51 285 0.0 0.0 0.01 0.08 0.08 91 1014.4
20260505084314 51 285 0.0 0.0 0.02 0.08 0.08 91 1014.5
20260505083825 51 285 0.0 0.0 0.02 0.08 0.08 91 1014.5
20260505083316 51 285 0.0 0.0 0.04 0.08 0.08 91 1014.5
20260505082828 52 285 0.0 0.0 0.06 0.08 0.08 91 1014.5
20260505082318 52 285 0.0 0.0 0.07 0.08 0.08 91 1014.5
20260505081829 52 285 0.0 0.0 0.08 0.08 0.08 91 1014.7
20260505081341 52 38 0.0 4.0 0.08 0.08 0.08 90 1014.8
20260505080852 52 40 0.0 4.0 0.08 0.08 0.08 90 1014.8
20260505080344 52 210 0.0 0.0 0.07 0.07 0.07 90 1014.8
20260505075839 52 210 0.0 0.0 0.07 0.07 0.07 90 1014.7
20260505075327 52 210 0.0 0.0 0.07 0.07 0.07 89 1014.8
20260505074817 52 210 0.0 0.0 0.07 0.07 0.07 89 1014.8
20260505074329 52 210 0.0 0.0 0.06 0.06 0.06 89 1014.9
20260505073821 52 210 0.0 0.0 0.06 0.06 0.06 88 1015.0
20260505073312 53 210 0.0 0.0 0.04 0.04 0.04 88 1014.8
20260505072824 53 176 0.0 0.0 0.02 0.02 0.02 88 1014.9
20260505072314 53 342 0.0 0.0 0.01 0.01 0.01 87 1014.8
20260505071824 53 337 0.0 0.0 0.00 0.00 0.00 87 1014.8
20260505071336 53 337 0.0 2.0 0.00 0.00 0.00 87 1014.8
20260505070845 53 314 0.0 2.0 0.00 0.00 0.00 86 1014.8
20260505070335 53 271 0.0 0.0 0.00 0.00 0.00 86 1014.8
20260505065830 53 270 0.0 0.0 0.00 0.00 0.00 85 1014.8
20260505065321 54 269 0.0 0.0 0.00 0.00 0.00 85 1014.9
20260505064831 54 264 0.0 0.0 0.00 0.00 0.00 84 1014.9
20260505064322 54 264 0.0 0.0 0.00 0.00 0.00 84 1014.9
20260505063813 54 264 0.0 0.0 0.00 0.00 0.00 84 1014.9
20260505063324 54 264 0.0 0.0 0.00 0.00 0.00 84 1014.8
20260505062835 54 264 0.0 0.0 0.00 0.00 0.00 83 1014.8
20260505062324 54 264 0.0 0.0 0.00 0.00 0.00 83 1014.9
20260505061815 54 264 0.0 0.0 0.00 0.00 0.00 83 1014.9
20260505061326 54 264 0.0 4.0 0.00 0.00 0.00 82 1014.9
20260505060817 54 264 0.0 6.0 0.00 0.00 0.00 81 1015.0
20260505060312 55 205 1.0 6.0 0.00 0.00 0.00 78 1015.0
20260505055823 55 208 1.0 7.0 0.00 0.00 0.00 77 1015.1
20260505055314 55 221 2.0 7.0 0.00 0.00 0.00 77 1015.0
20260505054825 55 224 2.0 7.0 0.00 0.00 0.00 76 1015.0
20260505054337 55 239 3.0 7.0 0.00 0.00 0.00 76 1015.1
20260505053828 55 214 2.0 7.0 0.00 0.00 0.00 75 1015.1
20260505053318 55 204 3.0 6.0 0.00 0.00 0.00 75 1015.1
20260505052829 55 195 1.0 4.0 0.00 0.00 0.00 75 1015.1
20260505052320 55 188 1.0 4.0 0.00 0.00 0.00 75 1015.0
20260505051835 55 209 1.0 7.0 0.00 0.00 0.00 75 1015.1
20260505051327 55 212 2.0 8.0 0.00 0.00 0.00 74 1015.1
20260505050818 55 165 2.0 8.0 0.00 0.00 0.00 74 1015.1
20260505050348 55 229 2.0 8.0 0.00 0.00 0.00 74 1015.1
20260505041319 56 238 2.0 9.0 0.00 0.00 0.00 72 1014.9
20260505040829 56 209 2.0 9.0 0.00 0.00 0.00 72 1014.9
20260505040319 56 191 3.0 6.0 0.00 0.00 0.00 71 1014.9
20260505035830 57 152 2.0 7.0 0.00 0.00 0.00 70 1014.7
20260505035321 57 214 3.0 8.0 0.00 0.00 0.00 70 1014.7
20260505034811 57 232 2.0 8.0 0.00 0.00 0.00 69 1014.6
20260505034322 57 215 4.0 9.0 0.00 0.00 0.00 68 1014.5
20260505033814 57 214 5.0 11.0 0.00 0.00 0.00 68 1014.5
20260505033330 58 184 4.0 12.0 0.00 0.00 0.00 68 1014.5
20260505032821 58 277 4.0 8.0 0.00 0.00 0.00 67 1014.4
20260505032312 59 197 4.0 8.0 0.00 0.00 0.00 63 1014.4
20260505031823 59 218 4.0 9.0 0.00 0.00 0.00 61 1014.4
20260505031315 59 222 4.0 8.0 0.00 0.00 0.00 61 1014.4
20260505030826 59 235 1.0 5.0 0.00 0.00 0.00 62 1014.3
20260505030316 59 275 1.0 5.0 0.00 0.00 0.00 62 1014.2
20260505025828 59 274 2.0 6.0 0.00 0.00 0.00 62 1014.1
20260505025323 59 262 1.0 8.0 0.00 0.00 0.00 62 1014.1
20260505024815 59 281 4.0 9.0 0.00 0.00 0.00 62 1014.1
20260505024346 59 252 2.0 10.0 0.00 0.00 0.00 62 1014.1
20260505023815 59 221 4.0 9.0 0.00 0.00 0.00 61 1014.1
20260505023327 60 274 3.0 8.0 0.00 0.00 0.00 61 1014.1
20260505022819 60 165 4.0 9.0 0.00 0.00 0.00 60 1014.1
20260505022350 60 216 3.0 9.0 0.00 0.00 0.00 60 1014.0
20260505021820 60 221 2.0 8.0 0.00 0.00 0.00 59 1014.1
20260505021312 60 281 4.0 8.0 0.00 0.00 0.00 58 1014.1
20260505020823 60 252 2.0 8.0 0.00 0.00 0.00 57 1014.0
20260505020335 61 272 2.0 6.0 0.00 0.00 0.00 57 1014.0
20260505015830 61 259 2.0 8.0 0.00 0.00 0.00 57 1014.0
20260505015322 61 257 1.0 9.0 0.00 0.00 0.00 56 1013.9
20260505014814 61 248 3.0 9.0 0.00 0.00 0.00 56 1013.8
20260505014325 61 242 3.0 9.0 0.00 0.00 0.00 56 1013.8
20260505013815 61 293 4.0 12.0 0.00 0.00 0.00 56 1013.8
20260505013328 62 264 5.0 10.0 0.00 0.00 0.00 55 1013.8
20260505012819 62 247 4.0 14.0 0.00 0.00 0.00 54 1013.8
20260505012330 62 278 5.0 14.0 0.00 0.00 0.00 53 1013.7
20260505011824 63 240 4.0 12.0 0.00 0.00 0.00 52 1013.7
20260505011316 64 278 5.0 12.0 0.00 0.00 0.00 50 1013.7
20260505010827 64 248 2.0 10.0 0.00 0.00 0.00 49 1013.8
20260505010317 64 237 3.0 8.0 0.00 0.00 0.00 47 1013.7
20260505005850 64 266 2.0 6.0 0.00 0.00 0.00 45 1013.8
20260505005320 64 266 2.0 7.0 0.00 0.00 0.00 44 1013.7
20260505004852 64 289 1.0 7.0 0.00 0.00 0.00 44 1013.7
20260505004322 64 270 2.0 5.0 0.00 0.00 0.00 44 1013.7
20260505003813 65 196 3.0 7.0 0.00 0.00 0.00 44 1013.8
20260505003344 65 298 3.0 7.0 0.00 0.00 0.00 43 1013.8
20260505002818 64 259 1.0 5.0 0.00 0.00 0.00 44 1013.8
20260505002330 64 274 1.0 4.0 0.00 0.00 0.00 44 1013.9
20260505001842 64 230 1.0 7.0 0.00 0.00 0.00 43 1013.8
20260505001312 64 333 2.0 6.0 0.00 0.00 0.00 43 1014.0
20260505000824 64 307 2.0 6.0 0.00 0.00 0.00 43 1013.9
20260505000315 65 307 1.0 6.0 0.00 0.00 0.00 42 1013.8
20260504235826 65 195 1.0 7.0 0.00 0.00 0.00 43 1013.8
20260504235319 65 238 2.0 7.0 0.00 0.00 0.00 43 1013.9